Regional Weather Roundup
Issued by NWS Charleston, SC

Current Version | Previous Version | Graphics & Text | Print | Product List | Glossary On
Versions: 1 2 3 4 5 6 7 8 9 10 11 12 13 14 15 16 17 18 19 20 21 22 23 24 25 26 27 28 29 30 31 32 33 34 35 36 37 38 39 40 41 42 43 44 45 46 47 48 49 50
000
ASUS42 KCHS 241027
RWRCHS

REGIONAL WEATHER ROUNDUP
NATIONAL WEATHER SERVICE CHARLESTON SC
600 AM EDT MON JUL 24 2017

NOTE: "FAIR" INDICATES FEW OR NO CLOUDS BELOW 12,000 FEET WITH NO
SIGNIFICANT WEATHER AND/OR OBSTRUCTIONS TO VISIBILITY.

NOT ALL STATIONS ARE QUALITY CONTROLLED. USE DATA WITH CAUTION...
ESPECIALLY DEWPOINT OBSERVATIONS.

SCZ027-030-031-034>040-042>050-241100-
...SOUTHEAST SOUTH CAROLINA...

CITY           SKY/WX    TMP DP  RH WIND       PRES   REMARKS
N CHARLESTON   MOCLDY    78  73  84 SW9       29.93R
WATERFRONT PRK   N/A     80  76  87 SW6       29.91R
JOHNS ISLAND   FAIR      79  75  89 SW7       29.93F
PINOPOLIS        N/A     79  75  89 SW8       29.84R
MONCKS CORNER  CLOUDY    75  73  94 SW6       29.93R
SUMMERVILLE    CLOUDY    77  73  88 S3        29.94R
BEAUFORT MCAS  CLOUDY    79  76  90 SW10      29.95R
BEAUFORT ARPT  CLOUDY    79  73  83 W13       29.95R
HILTON HEAD IS NOT AVBL
WALTERBORO     CLOUDY    75  73  94 SW7       29.95R
ALLENDALE      NOT AVBL

...SOUTHERN MIDLANDS AND PEE DEE...

CITY           SKY/WX    TMP DP  RH WIND       PRES   REMARKS
GEORGETOWN     PTSUNNY   77  75  94 SW7       29.93S
KINGSTREE      CLOUDY    75  73  94 CALM      29.92R
ORANGEBURG     MOCLDY    76  74  93 SW5       29.93R
BARNWELL       PTSUNNY   77  77 100 SW6       29.94R
AIKEN          PTSUNNY   70  70 100 SW6       29.96R
MANNING        PTSUNNY   77  75  94 W7        29.93R
COLUMBIA       PTCLDY    74  71  91 CALM      29.90R
SUMTER         CLOUDY    73  72  94 S7        29.90R FOG
FLORENCE       MOCLDY    74  73  97 SW5       29.92R
MYRTLE BEACH   PTCLDY    79  73  83 SW9       29.92S
N MYRTLE BEACH CLOUDY    78  74  87 W6        29.91R

$$

GAZ063-065-086>088-099>101-113>116-118-119-134>141-150-241100-
...SOUTHEAST GEORGIA...

CITY           SKY/WX    TMP DP  RH WIND       PRES   REMARKS
SAVANNAH ARPT  MOCLDY    78  74  87 SW9       29.97R
HUNTER AAF     PTCLDY    77  73  88 SW7       29.95R
FORT STEWART   MOCLDY    76  73  91 SW6       29.95R
STATESBORO     CLOUDY    78  78 100 NW6       29.97R
SYLVANIA       LGT RAIN  77  77  98 CALM      29.96R
CLAXTON        LGT RAIN  78  76  93 SW3       29.97R

...CSRA...CENTRAL AND FAR SOUTHEAST GEORGIA...

CITY           SKY/WX    TMP DP  RH WIND       PRES   REMARKS
THOMSON        CLOUDY    73  72  97 W3        29.98R
AUGUSTA-BUSH   CLOUDY    75  72  90 CALM      29.92R
AUGUSTA-DANIEL MOCLDY    75  71  87 SW5       29.94R
SWAINSBORO     CLOUDY    77  77 100 W6        29.98R
VIDALIA        CLOUDY    77  75  94 SW3       29.98R
EASTMAN        CLOUDY    77  77 100 W5        30.00R
HAZLEHURST     FAIR      77  77 100 SW3       29.97R
ALMA           PTCLDY    76  74  93 CALM      29.98R
WAYCROSS       CLEAR     77  77 100 SW3       29.99R
JESUP          NOT AVBL
BAXLEY         FAIR      77  77 100 CALM      29.98S
BRUNSWICK      CLEAR     77  75  94 SW6       30.00R
SAINT SIMONS   MOCLDY    78  75  90 SW9       29.98S

$$

SCZ027-028-034-036>038-045-046-048>050-GAZ119-141-241100-
...LAKE AND SUPPLEMENTAL COASTAL OBSERVATIONS...

STATION/POSITION TIME  TEMP    WIND        PRES    WAVE   SWELL
                       AIR SEA DIR/SP/G            HT/PER HT/PER/DIR
                 (UTC) (F)     (DEG/KT/KT) (MB)    (FT/S) (FT/S/D)
WINYAH BAY       0930   78     240/  6     1013.0S
LAKE MURRAY      NOT AVBL
ACE BASIN NERRS  0930   78     220/  2     1014.0R
FORT PULASKI     1000   78 85  250/  8/ 10 1014.9
SAPELO ISLAND    1000   78     220/ 10     1015.0

$$

ANZ835-935-AMZ111-154-330-350-352-354-370-450-454-472-241100-
...C-MAN AND BUOY OBSERVATIONS...

STATION/POSITION TIME  TEMP    WIND        PRES    WAVE   SWELL
                       AIR SEA DIR/SP/G            HT/PER HT/PER/DIR
                 (UTC) (F)     (DEG/KT/KT) (MB)    (FT/S) (FT/S/D)
BUOY 41004       1010   81 83  230/ 19/ 23 1013.6
BUOY 41008       0950   80 81  220/ 17/ 21 1014.6R   4/ 5   2/ 60/10
FOLLY BEACH CMAN 1000   79     240/  8/ 10 1014.2R
CAPERS NEARSHORE 1008   79 84  250/ 17/ 25 1013.0R
FRIPP NEARSHORE  1008   81 84  250/ 17/ 23 1013.6R


STATION/POSITION TIME  TEMP    WIND        PRES    WAVE   SWELL
                       AIR SEA DIR/SP/G            HT/PER HT/PER/DIR
                 (UTC) (F)     (DEG/KT/KT) (MB)    (FT/S) (FT/S/D)
5E ST. MARYS GA  1000      78                N/A     2/ 9
FRYING PAN BUOY  1010   78 82  240/ 17/ 23 1013.5
BUOY 41025       0950   83 84  240/ 23/ 27 1011.7R   8/ 7   2/160/ 9
CAPE LOOKOUT NC  1000   77     240/ 13/ 19 1012.4R
BUOY 41002       0950   82 83  220/ 17/ 19 1016.3R   5/ 5   2/100/ 8
BUOY 41010       1010   78 84  220/ 10/ 16 1017.8
ST AUGUSTINE FL  1000   75 74  230/  4/  5 1016.3R


$$




USA.gov is the U.S. government's official web portal to all federal, state and local government web resources and services.